Location: Borgo
(42.3939°N, 9.2791°E)
Time: 15:39:27
(UTC+00:00)

Okean 3 - Pass Details

Date: 27 February 2020
Orbit: 575 x 602 km, 82.5° (Epoch: 27 March)

Event Time Altitude Azimuth Distance (km) Brightness Sun altitude
Rises 19:27:30 0° 347° (NNW) 2,817 7.3 -26.1°
Reaches altitude 10° 19:29:45 10° 342° (NNW) 1,908 6.4 -26.5°
Enters shadow 19:33:31 51° 285° (WNW) 731 4.2 -27.2°
